Regional Weather Roundup
Issued by NWS

Home | Current Version | Previous Version | Graphics & Text | Print | Product List | Glossary On
Versions: 1 2 3 4 5 6 7 8 9 10 11 12 13 14 15 16 17 18 19 20 21 22 23 24 25 26 27 28 29 30 31 32 33 34 35 36 37 38 39 40 41 42 43 44 45 46 47 48 49 50
236
ASUS43 KFSD 240710
RWRSD

WEATHER ROUNDUP FOR SOUTH DAKOTA
NATIONAL WEATHER SERVICE SIOUX FALLS SD
200 AM CDT SUN JUL 24 2016

NOTE: "FAIR" INDICATES FEW OR NO CLOUDS BELOW 12,000 FEET WITH NO
SIGNIFICANT WEATHER AND/OR OBSTRUCTIONS TO VISIBILITY.


SDZ001>005-009-010-012>017-240800-
NORTHWEST AND NORTH CENTRAL SOUTH DAKOTA

CITY           SKY/WX    TMP DP  RH WIND       PRES   REMARKS
BUFFALO          N/A     64  48  56 N9        30.02R
FAITH            N/A     65  43  44 W3        30.04R
MOBRIDGE       CLEAR     64  56  75 NW8       29.93R
$$

SDZ012>016-024>037-041>051-057-063-072>074-240800-
SOUTHWEST AND SOUTH CENTRAL SOUTH DAKOTA

CITY           SKY/WX    TMP DP  RH WIND       PRES   REMARKS
RAPID CTY ARPT CLEAR     58  43  57 N10       30.10R
PIERRE         PTCLDY    66  57  72 W6        29.95R
CUSTER         CLEAR     63  34  33 NE8       30.21R
ELLSWORTH AFB  CLEAR     72  41  33 N8        30.10R
PHILIP         PTCLDY    58  50  75 W8        30.03R
PINE RIDGE     PTCLDY    62  52  69 NE5       30.05F
WINNER         FAIR      68  56  65 SW5       29.99R
$$

SDZ004>011-016>023-039-040-240800-
NORTHEAST SOUTH DAKOTA

CITY           SKY/WX    TMP DP  RH WIND       PRES   REMARKS
ABERDEEN       CLEAR     69  63  81 NW7       29.90R
WATERTOWN      PTCLDY    72  69  90 NW8       29.88R
BROOKINGS      PTCLDY    71  69  93 NW7       29.89R
SISSETON         N/A     68  63  84 NW8       29.83R
$$

SDZ017-020-022-023-036>040-048>070-240800-
SOUTHEAST SOUTH DAKOTA

CITY           SKY/WX    TMP DP  RH WIND       PRES   REMARKS
SIOUX FALLS    PTCLDY    76  69  79 N12       29.88R
HURON          CLEAR     66  64  93 W7        29.89R
CHAMBERLAIN    PTCLDY    67  63  87 CALM      29.95R
MITCHELL       PTCLDY    70  67  90 W6        29.91R
YANKTON        PTCLDY    75  66  73 NW12      29.87R
$$

ABBREVIATIONS USED IN REMARKS
   TC - TEMPERATURE IN CELSIUS
  WCI - WIND CHILL INDEX
   HX - HEAT INDEX
  VSB - VISIBILITY





USA.gov is the U.S. government's official web portal to all federal, state and local government web resources and services.